Showing default

SECOR 5 (EGRS 5), 1506

Orbit data source: Space-Track

SECOR 5 (EGRS 5), 1506 is an American payload satellite in LEO that was launched on Tue, 10 Aug 1965 UTC via an SCOUT B launch vehicle from the Wallops Island (WLPIS). Payload-class satellites include a variety of spacecraft equipped with specific instruments for various scientific and technological missions. These include communications satellites like Starlink; space stations such as the ISS; scientific satellites like the Hubble; Earth observation satellites from companies like Planet Labs, Umbra, and HawkEye 360; GPS; miniature CubeSats for education and research; and military/defense satellites.

Loading next visibility...
Identifier
1506, 1965-063A
Orbit
LEO
Country
Flag of USUS
Related business
Manufacturer
Cubic
Mission
Spacecraft
Bus & Motor
NRL 20", Unknown motor
Mass
18 kg wet, 18 kg dry
Launch date (UTC)
1965-08-10 (61 years ago)
Launch vehicle
SCOUT B
Launch site
Wallops Island (WLPIS)
Object type
Payload
Rocket body
Debris
Shape & HBR
Unknown
Radar Cross Section
Medium (>0.1 m² and <1 m²)

Expand to show TLE details & history
Last TLE update: 7 hours ago

TLE from 7 hours ago
0 SECOR 5 (EGRS 5)
1  1506U 65063A   26104.07078301 -.00000027  00000-0  42658-4 0  9990
2  1506  69.2366 345.1128 0789031 214.3530 304.1235 11.78686353610694
Epoch: 2026-04-14T01:41Z
TLE epoch observation values (Epoch: 2026-04-14T01:41:55.652Z)
Latitude
27.39201°
Longitude
-73.89442°
Altitude
1,456.377 km
Speed
7.277 km/s
True Right ascension
10h 15m 21s
True Declination
27° 15' 51"
Sunlit
Object was in daylight at epoch
Visualization orbit readout
Latitude
Unknown
Longitude
Unknown
Altitude
Unknown
Speed
Unknown
Apparent Right ascension
Unknown
Apparent Declination
Unknown
Sunlit
N/A
Visualization observer readout
Local Sidereal Time
15:39:15
Azimuth
Unknown
Elevation
Unknown
Doppler factor
Unknown
Orbital elements
Apogee altitude
2,419.418 km
Perigee altitude
1,132.64 km
Semi-major axis
8,154.166 km
Eccentricity
0.0789
Inclination
69.2366°
RAAN
345.1128°
Arg. of periapsis
214.353°
True anomaly
296.22652°
Mean anomaly
304.1235°
Eccentric anomaly
300.21695°
Mean motion
2.94764 °/min
Orbital period
122.13 mins
BSTAR
0.000042658
Loading maneuver chart data...
Computing Atmospheric mass density...
Loading historical data...
Loading historical data...
Loading historical data...
Loading historical data...
Loading historical data...
Loading historical data...
Loading historical data...

Documentation

Showing up to 5 results
|